4475 Bonita Road Bonita, CA 91902
Phone: 619.479.4141

Chula Vista Golf Course

LOWEST AVAILABLE RATE
$13.97
View ScorecardTotal Holes: 18

Chula Vista Golf Course

Chula Vista Golf Course, located just south of San Diego in Bonita, CA offers a 6,760 yard Par 73 layout from the back tees that will test players of all skill levels. The golf course boasts a slope rating of 130 with well positioned bunkers and challenging hazards. The links style layout brings the Sweetwater River and three lakes into play on 15 holes. The golf course offers full amenities including a driving range, putting green and chipping area. A full service restaurant and catering facility are available for tournament and non golf events.

Chula Vista Golf Course is easily located just off the 5 and 805 freeways, less than 20 minutes from downtown San Diego and numerous attractions, making this course a great local place to play.

Book your tee time online today through Golfzing for the cheapest rates. For information regarding events, lessons or tournaments, follow the links provided or contact the golf course for more details.

Amenities
Pro ShopInstructionRental Clubs
Pull CartRestaurantBar & Grill
Snack BarDriving RangeChipping Green(s)
Putting Green(s)ClubhouseCart Rental
Format: 2015-03-27
You don't have Javascript enabled. Hover for more information! But don't worry: you can still use this web site! You have two options:
  • enable Javascript in your browser and then refresh this page, for a much enhanced experience.
  • click the Update button every time you want to update the selection.

There are no upcoming events at this golf course.

Format: 2015-03-27

There were no specials found matching your criteria. Please try again.

 
Feel Like: 82.5 °F Last Updated: Friday March 27, 2015 10:10 AM
 Temperature: 85.6 °F
 Sunrise: 6:42 am 
 Sunset: 7:04 pm 
 Dewpoint: 40.1 °F
 Relative Humidity: 20.2
 Wind: 170 at 2 mph
 Barometer: 29.99 in and holding steady

Today Sat, 3/28 Sun, 3/29 Mon, 3/30 Tue, 3/31 Wed, 4/1 Thu, 4/2
High: 81
Low: 58
High: 75
Low: 58
High: 76
Low: 55
High: 76
Low: 56
High: 77
Low: 55
High: 78
Low: 56
High: 75
Low: 55
Sunny. Highs 77 to 82 near the coast to 84 to 89 inland. Light winds becoming west 15 mph in the afternoon
Partly cloudy in the morning...Becoming mostly sunny. Patchy dense fog in the morning. Local visibility one quarter mile or less at times in the morning. Highs 71 to 76 near the coast to 79 to 84 inland. Light winds becoming west 15 mph in the afternoon
Mostly cloudy in the morning...Becoming mostly sunny. Patchy fog in the morning. Highs 70 to 75 near the coast to 74 to 79 inland. Light winds
Cloudy in the morning...Becoming mostly sunny. Patchy fog in the morning. Highs 71 to 76 near the coast to 76 to 81 inland
Partly cloudy in the morning...Becoming mostly sunny. Patchy fog in the morning. Highs 70 to 75 near the coast to 74 to 79 inland
Mostly cloudy in the morning...Becoming mostly sunny. Patchy fog in the morning. Highs 71 to 76 near the coast to 75 to 80 inland
Mostly cloudy in the morning...Becoming mostly sunny. Patchy fog in the morning. Highs 72 to 77 near the coast to 76 to 81 inland
Powered by WeatherBug

Fill in the form below.

4475 Bonita Road Bonita, CA 91902, US
Enter the address, postcode and/or city from where you want to start your journey.
Phil Davis
Bob Mitchell
Luis Robinson
Seth Jenkins
Mary Pendleton
James Mason
Anne Dursee
Eun Kim
JOE ESKEY
Rich Shalloo
Ki Jung
Jose Esparza
Bruce Broadfoot
Daniel Kelley
Levi Mitchell
Don Capie
Book a Tee Time
Options
Ride
Walk
ZINGTIMES!
Search

Time
Players
Details
Price
Info
 

10:59 AM
18 holes Cart Included
$21.97$38.00
4,394 ZINGPOINTS!

11:07 AM
18 holes Cart Included
$21.97$38.00
4,394 ZINGPOINTS!

11:15 AM
18 holes Cart Included
$21.97$38.00
4,394 ZINGPOINTS!

11:22 AM
18 holes Cart Included
$21.97$38.00
4,394 ZINGPOINTS!

11:37 AM
18 holes Cart Included
$21.97$38.00
4,394 ZINGPOINTS!

11:52 AM
18 holes Cart Included
$28.50$38.00
5,700 ZINGPOINTS!

11:59 AM
18 holes Cart Included
$25.97$38.00
5,194 ZINGPOINTS!

12:22 PM
18 holes Cart Included
$25.97$29.00
5,194 ZINGPOINTS!

12:45 PM
18 holes Cart Included
$25.97$29.00
5,194 ZINGPOINTS!

12:52 PM
18 holes Cart Included
$25.97$29.00
5,194 ZINGPOINTS!

12:59 PM
18 holes Cart Included
$25.97$29.00
5,194 ZINGPOINTS!

1:00 PM
18 holes Cart Included
$21.97$29.00
4,394 ZINGPOINTS!

1:07 PM
18 holes Cart Included
$21.97$29.00
4,394 ZINGPOINTS!

1:15 PM
18 holes Cart Included
$21.97$29.00
4,394 ZINGPOINTS!

1:22 PM
18 holes Cart Included
$21.97$29.00
4,394 ZINGPOINTS!

1:37 PM
18 holes Cart Included
$21.97$29.00
4,394 ZINGPOINTS!

1:45 PM
18 holes Cart Included
$21.97$29.00
4,394 ZINGPOINTS!

1:52 PM
18 holes Cart Included
$29.00
5,800 ZINGPOINTS!

2:00 PM
18 holes Cart Included
$19.97$29.00
4,993 ZINGPOINTS!

2:07 PM
18 holes Cart Included
$19.97$29.00
4,993 ZINGPOINTS!

2:15 PM
18 holes Cart Included
$19.97$29.00
4,993 ZINGPOINTS!

2:22 PM
18 holes Cart Included
$19.97$29.00
4,993 ZINGPOINTS!

2:30 PM
18 holes Cart Included
$19.97$29.00
4,993 ZINGPOINTS!

2:37 PM
18 holes Cart Included
$19.97$29.00
4,993 ZINGPOINTS!

2:45 PM
18 holes Cart Included
$29.00
7,250 ZINGPOINTS!

3:00 PM
18 holes Cart Included
$21.97$29.00
4,394 ZINGPOINTS!

3:07 PM
18 holes Cart Included
$21.97$29.00
4,394 ZINGPOINTS!

3:15 PM
18 holes Cart Included
$21.97$29.00
4,394 ZINGPOINTS!

3:22 PM
18 holes Cart Included
$21.97$29.00
4,394 ZINGPOINTS!

3:30 PM
18 holes Cart Included
$21.97$29.00
4,394 ZINGPOINTS!

3:37 PM
18 holes Cart Included
$21.97$29.00
4,394 ZINGPOINTS!

3:45 PM
18 holes Cart Included
$29.00
5,800 ZINGPOINTS!

4:00 PM
18 holes Cart Included
$17.97$20.00
3,594 ZINGPOINTS!

4:07 PM
18 holes Cart Included
$17.97$20.00
3,594 ZINGPOINTS!

4:15 PM
18 holes Cart Included
$17.97$20.00
3,594 ZINGPOINTS!

4:22 PM
18 holes Cart Included
$17.97$20.00
3,594 ZINGPOINTS!

4:30 PM
18 holes Cart Included
$17.97$20.00
3,594 ZINGPOINTS!

4:37 PM
18 holes Cart Included
$17.97$20.00
3,594 ZINGPOINTS!

4:45 PM
18 holes Cart Included
$20.00
4,000 ZINGPOINTS!

5:00 PM
18 holes Cart Included
$14.97$20.00
2,246 ZINGPOINTS!

5:07 PM
18 holes Cart Included
$14.97$20.00
2,246 ZINGPOINTS!

5:15 PM
18 holes Cart Included
$14.97$20.00
2,246 ZINGPOINTS!

5:22 PM
18 holes Cart Included
$14.97$20.00
2,246 ZINGPOINTS!

5:30 PM
18 holes Cart Included
$14.97$20.00
2,246 ZINGPOINTS!

5:37 PM
18 holes Cart Included
$14.97$20.00
2,246 ZINGPOINTS!

5:45 PM
18 holes Cart Included
$20.00
3,000 ZINGPOINTS!

6:00 PM
18 holes Cart Included
$14.97$20.00
2,246 ZINGPOINTS!

6:07 PM
18 holes Cart Included
$20.00
3,000 ZINGPOINTS!

6:15 PM
18 holes Cart Included
$20.00
3,000 ZINGPOINTS!

Tee Times and Golf Course Discounts